This is the latest recevied weather packets stored in our database for station/object HS5SQI-1. If no packets are shown the sender has not sent any weather packets the latest 10 day(s).
| Time | Temp. | Humidity | Pressure | Rain* | Wind** | Luminosity | Snow |
|---|---|---|---|---|---|---|---|
| 1777376160 | 26.11° C | 99% | 965 hPa | - | - | 0 W/m² | - |
| 1777375538 | 26.67° C | 99% | 965 hPa | - | - | 0 W/m² | - |
| 1777374916 | 27.22° C | 99% | 964 hPa | - | - | 0 W/m² | - |
| 1777374294 | 25.56° C | 99% | 964 hPa | - | - | 0 W/m² | - |
| 1777373672 | 26.67° C | 99% | 963 hPa | - | - | 0 W/m² | - |
| 1777373050 | 26.11° C | 99% | 963 hPa | - | - | 0 W/m² | - |
| 1777372428 | 27.78° C | 69% | 962 hPa | - | - | 0 W/m² | - |
| 1777371806 | 30° C | 79% | 962 hPa | - | - | 0 W/m² | - |
| 1777371184 | 33.89° C | 74% | 961 hPa | - | - | 0 W/m² | - |
| 1777370562 | 34.44° C | 69% | 960 hPa | - | - | 0 W/m² | - |
| 1777369940 | 34.44° C | 66% | 960 hPa | - | - | 0 W/m² | - |
| 1777369318 | 34.44° C | 64% | 960 hPa | - | - | 0 W/m² | - |
| 1777368696 | 34.44° C | 64% | 960 hPa | - | - | 0 W/m² | - |
| 1777368074 | 34.44° C | 61% | 960 hPa | - | - | 0 W/m² | - |
| 1777367452 | 35° C | 66% | 960 hPa | - | - | 0 W/m² | - |
| 1777366830 | 35° C | 68% | 960 hPa | - | - | 0 W/m² | - |
| 1777366208 | 35° C | 71% | 960 hPa | - | - | 0 W/m² | - |
| 1777365586 | 34.44° C | 75% | 960 hPa | - | - | 0 W/m² | - |
| 1777364964 | 34.44° C | 71% | 960 hPa | - | - | 0 W/m² | - |
| 1777364342 | 34.44° C | 70% | 960 hPa | - | - | 0 W/m² | - |
| 1777363720 | 34.44° C | 73% | 960 hPa | - | - | 0 W/m² | - |
| 1777363098 | 34.44° C | 72% | 961 hPa | - | - | 0 W/m² | - |
| 1777362476 | 34.44° C | 72% | 961 hPa | - | - | 0 W/m² | - |
| 1777361854 | 33.89° C | 75% | 961 hPa | - | - | 0 W/m² | - |
| 1777361232 | 33.33° C | 79% | 962 hPa | - | - | 0 W/m² | - |
* Rain since midnight (hover to see other rain measurements)
** Current wind speed in m/s (hover to see current wind gust speed)